Location: Red Rock Farm
(35.2100°N, 97.2200°W)
Time: 23:25:41
(UTC-05:00)

ISS - All Passes

Search period start: 02 September 2015 00:00
Search period end: 12 September 2015 00:00
Orbit: 400 x 403 km, 51.6° (Epoch: 01 September)

Date Brightness Start Highest point End Pass type
(mag) Time Alt. Az. Time Alt. Az. Time Alt. Az.
02 Sep - 08:44:14 10° SW 08:47:29 87° SE 08:50:45 10° NE daylight
02 Sep - 10:22:45 10° NW 10:24:19 13° NNW 10:25:49 10° N daylight
02 Sep - 15:14:38 10° NNW 15:17:22 24° NNE 15:20:07 10° E daylight
02 Sep - 16:50:58 10° WNW 16:53:46 27° SW 16:56:33 10° S daylight
03 Sep - 07:51:15 10° SSW 07:54:15 37° SE 07:57:19 10° ENE daylight
03 Sep - 09:28:16 10° W 09:30:47 20° NNW 09:33:16 10° NNE daylight
03 Sep - 14:21:56 10° N 14:23:52 15° NNE 14:25:51 10° ENE daylight
03 Sep - 15:57:22 10° NW 16:00:35 63° SW 16:03:47 10° SE daylight
04 Sep - 06:58:56 10° S 07:01:06 17° SE 07:03:22 10° E daylight
04 Sep - 08:34:18 10° WSW 08:37:20 35° NW 08:40:23 10° NNE daylight
04 Sep - 15:04:07 10° NW 15:07:18 56° NE 15:10:30 10° ESE daylight
04 Sep - 16:42:37 10° WSW 16:43:24 11° SW 16:44:01 10° SW daylight
05 Sep - 07:40:46 10° SW 07:44:00 77° NW 07:47:16 10° NE daylight
05 Sep - 09:19:43 10° NW 09:20:55 11° NNW 09:22:03 10° N daylight
05 Sep - 14:11:05 10° NNW 14:13:56 28° NE 14:16:49 10° E daylight
05 Sep - 15:47:38 10° WNW 15:50:16 22° SW 15:52:51 10° S daylight
06 Sep - 06:47:40 10° SSW 06:50:46 45° SE 06:53:54 10° ENE daylight
06 Sep - 08:25:01 10° WNW 08:27:22 18° NNW 08:29:40 10° NNE daylight
06 Sep - 13:18:18 10° NNW 13:20:28 17° NNE 13:22:41 10° ENE daylight
06 Sep - 14:53:56 10° WNW 14:57:06 50° SW 15:00:15 10° SSE daylight
07 Sep - 05:55:08 10° S 05:57:37 20° SE 06:00:08 10° E visible
07 Sep - 07:30:58 10° W 07:33:54 30° NW 07:36:51 10° NNE daylight
07 Sep - 12:26:05 10° N 12:26:54 11° NNE 12:27:47 10° NE daylight
07 Sep - 14:00:37 10° NW 14:03:51 69° NE 14:07:05 10° SE daylight
08 Sep - 06:37:19 10° WSW 06:40:33 63° NW 06:43:47 10° NE visible
08 Sep - 08:16:55 10° NW 08:17:32 10° NNW 08:18:05 10° NNW daylight
08 Sep - 13:07:32 10° NNW 13:10:31 32° NE 13:13:29 10° ESE daylight
08 Sep - 14:44:22 10° W 14:46:47 19° SW 14:49:07 10° S daylight
09 Sep - 05:44:06 10° SSW 05:47:17 56° SE 05:50:30 10° NE visible
09 Sep - 07:21:49 10° WNW 07:23:57 16° NNW 07:26:03 10° NNE daylight
09 Sep - 12:14:41 10° NNW 12:17:04 19° NNE 12:19:28 10° ENE daylight
09 Sep - 13:50:32 10° WNW 13:53:37 41° SW 13:56:41 10° SSE daylight
10 Sep - 04:51:25 10° S 04:54:07 24° SE 04:56:51 10° ENE visible
10 Sep - 06:27:38 10° W 06:30:28 26° NW 06:33:18 10° NNE visible
10 Sep - 11:22:13 10° N 11:23:31 12° NNE 11:24:52 10° NE daylight
10 Sep - 12:57:08 10° NW 13:00:24 84° NE 13:03:38 10° SE daylight
11 Sep - 03:59:52 10° SSE 04:00:59 12° SE 04:02:14 10° ESE visible
11 Sep - 05:33:54 10° WSW 05:37:05 52° NW 05:40:18 10° NE visible
11 Sep - 12:04:00 10° NNW 12:07:04 38° NE 12:10:08 10° ESE daylight
11 Sep - 13:41:11 10° W 13:43:17 16° SW 13:45:18 10° SSW daylight
